Temperature
18 18 18 18 18 18 18 18 18 18 18 18 18 18 18 18 18 18 18 18 18 18 18 18 18 18 18 17 17 17 17 17 17 17 16 16 16 16 16 16 16 16 16
18 18 18 18 18 18 18 18 18 18 18 18 18 18 18 18 18 18 18 18 18 18 18 18 18 18 18 18 17 17 17 17 17 17 17 16 16 16 16 16 16 16 16
19 18 18 18 18 18 18 18 18 18 18 18 18 18 18 18 18 18 18 18 18 18 18 18 18 18 18 17 17 17 17 17 17 17 17 17 16 16 16 16 16 16 16
19 18 18 18 18 18 18 18 18 18 18 18 18 18 18 18 18 18 18 18 18 18 18 18 18 17 17 17 17 17 17 17 17 17 17 17 16 16 16 16 16 16 16
19 19 18 18 18 18 18 18 18 18 18 18 18 18 18 18 18 18 18 18 18 18 18 18 18 17 17 17 17 17 17 17 17 17 17 17 16 16 16 16 16 16 16
19 19 18 18 18 18 18 18 18 18 18 18 18 18 18 18 18 18 18 18 18 18 18 18 18 18 17 17 17 17 17 17 17 17 17 17 16 16 16 16 16 16 16
19 19 18 18 18 18 18 18 18 18 18 18 18 18 18 18 18 18 18 18 18 18 18 18 18 18 18 17 17 17 17 17 17 17 17 17 16 16 16 16 16 16 16
19 19 18 18 18 18 18 18 18 18 18 18 18 18 18 18 19 19 19 18 18 18 18 18 18 18 18 18 18 17 17 17 17 17 17 17 16 16 16 16 16 16 16
19 19 18 18 18 18 18 18 18 18 18 18 18 18 18 18 18 19 19 19 19 18 18 18 18 18 18 18 18 17 17 17 17 17 17 17 16 16 16 16 16 16 16
18 18 18 18 18 18 18 18 18 18 18 18 18 18 18 18 18 18 18 18 18 18 18 18 18 18 18 18 18 17 17 17 17 17 17 17 16 16 16 16 16 16 16
18 18 18 18 18 18 18 18 18 18 18 18 18 18 18 18 18 18 18 18 18 18 18 18 18 18 18 18 18 18 17 17 17 17 17 16 16 16 16 16 16 16 16
18 18 18 18 18 18 18 18 18 18 18 17 17 17 17 17 18 17 17 17 18 18 18 18 18 18 17 17 17 17 17 17 17 17 16 16 16 16 16 16 16 16 15
18 18 18 18 18 18 18 18 17 17 17 17 18 17 17 17 17 17 17 17 17 17 17 17 17 17 17 17 17 17 17 17 17 16 16 16 16 16 16 16 15 15 15
18 18 18 18 18 18 18 17 17 17 17 17 17 17 17 17 17 17 17 17 16 16 17 17 17 17 17 17 17 17 17 16 16 16 16 16 15 15 15 15 15 15 15
18 18 17 17 18 18 17 17 17 17 17 17 17 17 17 17 17 17 17 17 16 16 16 16 16 16 16 16 16 16 16 16 16 16 15 15 15 15 15 15 15 15 15
18 17 17 17 17 17 17 17 17 17 17 16 16 16 17 17 17 17 16 16 16 16 16 16 16 16 16 16 16 16 16 15 15 15 15 15 15 15 14 14 14 14 14
17 17 17 17 17 17 17 17 17 16 16 16 16 16 16 16 16 16 16 16 16 16 15 15 15 15 15 15 15 15 15 15 15 14 14 14 14 14 14 14 14 14 14
17 17 17 17 17 17 16 16 16 16 16 16 16 16 16 16 16 16 16 16 15 15 15 15 15 14 15 15 15 14 14 14 14 14 14 14 14 14 14 13 13 13 13
17 17 17 17 16 16 16 16 16 16 16 16 15 16 16 16 15 15 15 15 15 15 15 14 14 14 14 14 14 14 14 13 13 13 13 13 13 13 13 13 13 13 13
17 17 16 16 16 16 16 16 16 16 15 15 15 15 15 15 15 15 15 15 15 14 14 14 14 13 13 13 13 13 13 13 13 13 13 12 12 12 12 12 12 12 12
16 16 16 16 16 16 16 15 15 15 15 15 15 14 14 14 14 14 14 14 14 14 13 13 13 13 13 12 12 12 12 12 12 12 12 12 12 11 11 11 11 11 11
16 16 16 15 15 15 15 15 15 15 15 15 14 14 14 14 14 14 13 13 13 13 13 13 12 12 12 12 12 12 12 12 11 11 11 11 11 11 11 10 10 10 10
16 15 15 15 15 15 15 15 15 14 14 14 14 14 13 13 13 13 13 13 13 12 12 12 12 12 11 11 11 11 11 11 11 10 11 10 10 10 10 10 10 9 9
15 15 15 15 14 14 14 14 14 14 14 13 13 13 13 13 12 12 12 12 12 12 12 11 11 11 11 11 11 11 11 11 10 10 10 10 9 9 9 9 9 9 9
15 14 14 14 14 14 13 13 13 13 13 13 13 12 12 12 12 12 12 12 12 11 11 11 11 11 11 10 10 10 10 10 10 10 10 9 9 9 9 8 8 8 8
14 14 14 13 13 13 13 13 13 13 13 12 12 12 11 11 11 11 11 11 11 11 10 10 10 10 10 10 10 10 10 10 10 9 9 9 9 8 8 8 8 8 8
Wind_Speed
5 6 6 7 7 7 6 5 5 5 4 4 4 5 6 8 11 12 12 17 18 17 16 16 15 15 14 14 13 13 12 12 12 12 11 11 11 11 11 10 10 10 10
7 6 5 6 6 7 7 6 6 4 3 3 3 5 6 9 11 12 13 16 18 18 18 17 17 16 16 15 15 14 14 13 13 13 13 13 13 12 12 11 11 11 11
10 7 5 4 6 8 7 5 5 3 3 2 3 4 5 8 10 12 13 14 15 18 19 18 18 18 17 17 16 16 15 15 15 15 15 14 14 14 14 13 13 13 12
11 7 4 4 6 6 4 3 3 2 3 3 3 3 4 5 9 12 13 14 15 15 18 20 20 19 19 18 18 17 17 16 16 16 16 16 16 15 15 15 14 14 14
10 8 5 5 6 4 3 4 3 3 3 3 4 4 4 4 5 9 10 13 15 16 16 19 22 22 21 20 19 18 18 18 18 17 17 17 17 17 17 17 16 16 16
10 8 5 5 5 3 3 3 3 3 3 3 4 3 3 4 4 6 8 11 13 16 16 16 17 19 21 21 20 20 20 20 19 19 19 18 18 18 18 18 18 18 17
9 7 4 4 4 4 5 5 3 3 3 2 0 2 3 4 5 6 6 6 9 13 15 16 16 15 15 21 22 21 21 20 20 20 20 20 20 20 20 19 19 19 18
7 7 6 5 5 5 5 5 4 3 3 2 3 1 2 4 3 5 4 6 6 6 9 13 14 15 15 14 17 22 22 21 20 21 21 21 21 21 21 21 21 20 20
6 5 6 6 5 5 5 6 5 5 4 3 3 4 3 4 3 3 3 3 4 3 4 7 11 13 14 13 14 18 21 21 21 21 20 20 20 21 21 21 21 21 21
5 6 6 6 6 5 6 6 6 5 4 4 2 3 4 4 3 2 3 2 2 3 4 5 6 9 11 11 12 13 16 18 19 19 18 18 18 18 18 19 20 21 21
4 5 5 5 5 5 5 5 4 5 4 5 4 3 3 2 3 3 4 3 2 2 2 4 4 5 8 10 11 12 13 15 17 16 15 15 15 15 15 15 15 16 17
3 4 4 4 4 4 5 5 5 5 5 5 4 4 3 3 4 4 4 4 3 3 2 2 3 4 6 8 10 11 12 13 14 15 14 14 14 14 13 13 13 13 13
2 4 4 3 4 4 4 4 4 5 4 4 5 4 4 4 3 3 4 3 3 2 2 1 2 3 5 6 7 9 10 12 13 13 12 12 11 11 11 11 11 11 11
2 2 3 3 3 3 4 4 3 4 3 4 4 3 3 3 3 3 3 3 2 2 1 2 1 1 1 3 4 6 6 9 11 11 11 11 10 10 10 10 10 9 9
1 1 2 2 2 2 2 2 2 3 2 2 2 3 3 2 2 3 3 3 3 3 3 2 1 1 0 0 1 2 4 5 8 9 10 10 9 8 8 8 8 8 8
1 1 2 2 2 1 1 1 1 0 1 0 1 1 2 2 1 1 1 2 2 3 3 1 1 1 1 1 2 1 2 2 4 7 8 8 8 8 7 7 6 6 7
1 2 2 3 3 3 2 2 2 2 1 1 1 0 1 1 1 1 0 0 1 2 3 2 1 1 1 1 2 3 2 2 1 3 5 6 6 6 6 5 5 4 4
2 2 2 3 3 3 3 4 3 3 3 2 2 2 2 1 2 1 1 1 0 1 2 1 1 1 1 1 2 2 3 3 3 3 2 3 3 2 2 1 1 1 2
2 3 3 3 3 3 4 3 4 4 5 5 4 4 3 4 3 3 2 2 1 2 2 2 0 1 1 2 2 3 4 3 4 5 6 6 5 4 4 4 3 3 2
3 3 3 3 4 4 4 4 6 6 6 6 5 5 5 5 4 4 4 3 3 3 3 2 2 2 2 2 2 2 3 3 3 5 7 7 8 9 8 7 6 6 6
4 4 5 5 5 5 5 5 6 7 6 6 6 6 7 8 9 7 5 4 4 4 4 4 3 3 3 2 2 1 2 2 3 3 4 5 5 5 7 8 7 7 8
5 6 5 6 6 6 8 10 8 7 6 6 6 6 7 8 10 12 12 11 8 5 4 3 3 3 2 2 2 2 2 2 2 3 3 3 3 3 3 5 7 8 8
6 7 7 7 7 8 11 11 12 8 7 6 6 6 6 7 8 7 9 11 11 11 8 3 4 2 1 1 2 3 3 3 1 1 2 2 3 3 3 5 6 7 8
7 7 7 7 8 8 11 12 12 9 8 7 7 6 6 6 7 7 8 8 8 8 8 6 4 2 2 2 2 2 2 3 3 3 2 2 2 2 3 5 7 8 7
7 7 6 7 8 7 9 10 9 7 7 7 8 8 7 7 9 9 8 7 7 6 9 11 10 8 8 8 6 4 4 4 3 3 3 2 1 1 2 3 5 7 6
7 6 7 7 7 6 9 10 9 5 6 6 6 7 10 9 10 10 7 6 6 4 5 6 8 9 9 9 9 4 3 3 2 1 2 2 1 1 2 2 2 3 4
Wind_Direction
176 180 188 195 202 206 209 223 232 242 246 244 217 190 178 175 175 179 185 187 189 190 191 193 193 194 195 196 196 195 196 197 195 193 193 193 192 192 192 193 194 192 191
180 179 185 195 206 208 212 218 227 225 231 231 209 192 187 179 180 185 189 193 197 198 199 200 200 201 202 203 203 203 204 205 204 202 202 202 202 202 201 202 202 201 201
182 180 184 194 210 209 208 217 230 226 231 223 213 203 194 188 187 191 195 197 203 207 207 206 207 208 209 210 211 211 212 211 210 210 210 211 210 209 207 208 210 209 209
184 177 182 198 208 207 198 202 208 214 233 228 225 223 207 199 196 198 199 202 205 210 213 214 214 214 215 216 217 217 217 216 216 216 216 216 217 217 215 214 216 215 215
189 181 189 202 202 200 203 217 202 198 219 230 233 235 228 220 209 206 203 207 209 212 213 217 219 218 219 221 222 222 221 219 220 220 220 220 221 222 221 220 220 220 221
193 188 194 205 197 188 205 210 213 216 218 223 245 256 244 233 221 217 213 211 213 215 216 217 220 222 223 224 224 225 226 224 224 224 224 224 224 224 223 224 225 225 226
203 197 201 207 201 202 210 210 206 222 234 207 197 306 306 267 240 235 219 209 214 217 216 216 217 218 223 227 228 229 229 229 228 228 228 228 227 227 225 226 226 227 228
206 209 203 204 204 208 221 218 206 206 232 188 163 168 315 323 300 250 230 223 222 215 215 217 216 216 220 222 226 229 231 231 232 230 230 230 231 230 229 229 229 229 230
224 220 211 208 209 206 218 222 210 202 219 227 181 166 182 235 289 308 267 239 226 208 216 215 217 221 222 224 227 231 231 233 234 234 232 231 231 231 231 232 232 233 233
231 229 221 214 213 212 218 225 215 208 199 223 226 208 197 182 192 290 313 301 267 222 211 218 213 215 218 220 224 227 229 230 231 233 233 231 230 231 232 234 236 237 237
248 244 233 222 222 219 220 222 215 213 208 211 213 211 218 215 203 205 269 299 315 272 225 215 208 200 209 217 223 225 225 225 225 227 228 229 229 229 231 235 240 243 242
262 261 247 233 229 226 229 225 216 214 217 218 218 209 201 207 210 199 229 252 268 282 273 238 216 204 207 214 220 218 216 220 220 223 226 229 231 230 231 234 239 245 249
265 266 261 245 234 228 224 217 216 222 218 218 219 219 213 221 212 197 210 240 256 277 288 286 239 218 216 213 216 218 214 216 216 217 219 224 227 227 228 231 235 241 246
250 263 269 264 252 231 223 210 212 225 224 225 233 229 224 226 213 200 200 203 257 279 274 268 297 250 218 206 218 217 221 216 212 210 213 219 222 226 230 233 235 238 241
263 290 294 289 277 241 219 198 208 224 220 228 249 256 253 251 232 220 205 195 200 240 264 254 276 328 334 161 225 202 208 211 209 209 213 217 219 224 228 229 230 233 237
5 22 6 2 4 37 77 113 128 164 130 290 278 279 274 281 276 263 217 215 201 206 238 258 259 299 353 39 38 105 172 199 204 205 210 212 215 219 221 223 228 232 237
55 48 38 45 48 52 57 73 75 90 110 67 7 346 302 312 341 334 291 157 168 173 213 267 314 325 31 34 40 58 87 112 163 202 205 207 209 210 209 214 222 236 253
58 61 62 60 52 52 60 68 68 63 73 66 46 45 23 38 41 30 58 71 101 153 173 214 336 357 7 11 38 45 57 64 66 70 120 157 165 160 167 184 221 248 274
70 70 76 76 62 60 68 67 70 65 64 62 58 55 43 55 48 42 55 56 53 63 95 134 49 10 14 21 36 48 54 50 63 59 65 67 77 87 89 80 68 54 42
86 83 78 78 76 71 70 70 71 71 67 60 54 49 48 56 54 49 53 49 63 69 73 87 67 36 32 21 49 51 45 38 45 48 55 61 65 66 65 66 65 63 60
81 82 75 69 70 74 71 75 76 77 69 60 52 49 55 62 60 55 58 50 60 67 69 72 61 49 36 32 25 16 64 46 43 42 49 46 53 52 49 50 52 60 69
74 77 73 79 74 72 69 74 84 76 70 63 57 50 53 52 58 59 62 62 65 76 80 77 64 64 33 18 18 54 71 65 38 11 56 40 39 40 35 45 49 56 59
75 76 73 76 76 73 74 75 77 80 72 62 54 50 55 51 53 57 56 54 52 52 63 95 86 64 38 2 53 63 69 78 72 339 75 45 22 29 27 41 47 53 57
82 81 77 76 77 75 77 80 77 74 69 60 55 54 56 48 53 62 65 59 50 44 48 59 75 61 60 47 81 104 117 82 47 23 58 70 13 18 19 28 39 46 55
87 81 80 79 79 68 74 84 85 81 74 61 55 51 55 59 54 64 68 63 50 36 45 55 59 58 57 59 70 78 69 78 50 1 15 73 32 15 10 7 26 42 51
96 91 81 76 82 76 71 80 85 89 81 69 54 45 49 60 58 62 66 66 56 29 31 39 41 41 42 43 46 69 104 102 88 15 345 56 40 53 25 343 358 17 33
Height
1567 1568 1568 1569 1570 1571 1572 1572 1573 1573 1573 1574 1574 1574 1574 1575 1575 1575 1575 1575 1575 1575 1575 1575 1576 1576 1577 1577 1577 1578 1578 1579 1580 1580 1581 1582 1582 1583 1583 1584 1585 1585 1586
1567 1567 1568 1569 1569 1570 1571 1572 1572 1572 1573 1573 1573 1574 1574 1574 1574 1574 1574 1574 1574 1574 1574 1574 1575 1575 1576 1576 1576 1577 1577 1578 1578 1579 1580 1580 1581 1582 1582 1583 1583 1584 1585
1566 1567 1567 1568 1568 1569 1570 1570 1571 1571 1572 1572 1572 1573 1573 1573 1573 1573 1573 1573 1573 1573 1574 1574 1574 1574 1574 1575 1575 1576 1576 1577 1577 1578 1578 1579 1580 1580 1581 1581 1582 1583 1583
1565 1565 1566 1567 1567 1568 1568 1569 1569 1570 1570 1570 1571 1571 1571 1572 1572 1572 1572 1572 1572 1572 1572 1572 1573 1573 1573 1573 1574 1574 1574 1575 1575 1576 1576 1577 1578 1578 1579 1579 1580 1581 1581
1563 1564 1564 1565 1565 1566 1566 1567 1567 1568 1568 1568 1569 1569 1569 1570 1570 1570 1570 1570 1570 1570 1570 1571 1571 1571 1571 1571 1572 1572 1572 1572 1573 1573 1574 1575 1575 1576 1576 1577 1578 1578 1579
1561 1562 1562 1563 1563 1564 1564 1565 1565 1566 1566 1567 1567 1567 1567 1567 1567 1567 1567 1567 1567 1568 1568 1568 1569 1569 1569 1569 1569 1569 1570 1570 1570 1571 1571 1572 1572 1573 1573 1574 1575 1575 1576
1559 1559 1559 1559 1559 1560 1561 1562 1562 1563 1563 1564 1565 1564 1564 1565 1564 1564 1564 1564 1565 1565 1565 1566 1566 1566 1566 1566 1566 1567 1567 1567 1567 1568 1568 1569 1569 1570 1570 1571 1571 1572 1573
1555 1555 1555 1555 1556 1557 1558 1559 1559 1560 1560 1561 1562 1562 1562 1562 1561 1561 1561 1561 1561 1562 1562 1562 1563 1563 1563 1563 1563 1563 1563 1563 1564 1564 1564 1565 1565 1566 1567 1567 1568 1568 1569
1552 1553 1552 1552 1553 1554 1554 1555 1556 1556 1557 1558 1559 1560 1559 1558 1558 1558 1558 1558 1558 1558 1558 1558 1559 1559 1559 1559 1560 1560 1560 1560 1560 1560 1560 1561 1561 1562 1562 1563 1564 1564 1565
1549 1549 1549 1549 1549 1550 1550 1551 1552 1553 1553 1554 1555 1556 1557 1557 1557 1555 1555 1555 1555 1555 1555 1555 1555 1555 1555 1555 1555 1556 1557 1557 1556 1556 1556 1556 1557 1557 1558 1559 1559 1560 1560
1547 1546 1546 1545 1546 1546 1546 1547 1548 1548 1549 1550 1551 1552 1553 1553 1553 1553 1551 1552 1552 1552 1552 1552 1552 1552 1551 1551 1552 1552 1552 1552 1553 1553 1552 1553 1553 1553 1554 1554 1555 1555 1556
1544 1543 1543 1542 1542 1542 1542 1543 1544 1545 1545 1546 1547 1548 1548 1549 1549 1549 1548 1547 1547 1548 1548 1548 1548 1548 1548 1548 1548 1548 1548 1549 1549 1549 1549 1549 1549 1549 1549 1550 1550 1550 1551
1541 1540 1540 1539 1539 1539 1539 1540 1540 1540 1541 1542 1543 1543 1544 1544 1545 1545 1545 1544 1544 1544 1544 1544 1545 1545 1544 1544 1544 1544 1544 1544 1545 1545 1545 1545 1545 1545 1545 1545 1546 1546 1546
1539 1538 1537 1536 1536 1535 1536 1536 1536 1537 1538 1538 1539 1539 1540 1540 1541 1541 1541 1541 1540 1540 1540 1540 1541 1541 1541 1540 1540 1540 1540 1540 1541 1541 1540 1540 1541 1541 1541 1542 1542 1542 1542
1537 1536 1535 1535 1534 1534 1533 1533 1533 1534 1534 1535 1535 1536 1536 1537 1537 1537 1537 1538 1538 1537 1536 1537 1537 1537 1537 1537 1536 1536 1536 1536 1537 1537 1537 1537 1537 1537 1537 1537 1537 1537 1537
1536 1535 1534 1533 1533 1532 1531 1531 1531 1531 1531 1532 1532 1532 1533 1533 1533 1533 1533 1533 1534 1534 1533 1533 1533 1534 1534 1533 1533 1533 1533 1533 1533 1533 1533 1533 1533 1533 1533 1533 1533 1533 1533
1534 1533 1533 1532 1531 1530 1530 1530 1529 1529 1529 1529 1529 1529 1529 1529 1529 1529 1530 1529 1530 1530 1530 1530 1530 1530 1530 1530 1530 1530 1529 1529 1530 1530 1530 1529 1529 1529 1529 1529 1529 1529 1529
1533 1532 1532 1531 1530 1529 1529 1529 1528 1528 1528 1527 1527 1527 1527 1527 1526 1526 1526 1526 1526 1527 1527 1527 1528 1528 1528 1527 1527 1527 1527 1527 1527 1527 1526 1526 1526 1526 1525 1525 1525 1524 1524
1531 1531 1531 1530 1529 1529 1529 1528 1528 1528 1527 1526 1526 1526 1526 1525 1525 1524 1524 1524 1524 1525 1525 1525 1525 1525 1525 1525 1525 1525 1525 1525 1525 1525 1524 1524 1523 1523 1523 1522 1522 1521 1520
1531 1530 1530 1530 1530 1529 1529 1529 1528 1528 1527 1527 1526 1525 1525 1524 1524 1524 1523 1523 1523 1523 1523 1523 1523 1523 1524 1523 1524 1523 1523 1524 1523 1523 1523 1522 1522 1522 1521 1520 1519 1519 1518
1530 1530 1530 1530 1530 1530 1530 1529 1529 1528 1528 1527 1527 1526 1525 1525 1524 1524 1523 1523 1522 1522 1522 1522 1522 1522 1522 1522 1522 1522 1522 1522 1522 1522 1522 1521 1521 1520 1520 1519 1518 1517 1516
1531 1530 1530 1530 1530 1530 1531 1530 1530 1529 1529 1528 1528 1527 1526 1526 1525 1525 1524 1524 1523 1523 1522 1522 1522 1521 1522 1522 1522 1522 1521 1521 1521 1522 1521 1521 1521 1520 1519 1518 1517 1516 1515
1531 1531 1531 1531 1531 1531 1532 1532 1531 1531 1530 1530 1529 1528 1528 1527 1527 1526 1526 1525 1524 1524 1524 1524 1523 1523 1523 1523 1522 1522 1522 1521 1521 1521 1521 1520 1520 1519 1519 1518 1517 1516 1515
1532 1532 1532 1532 1532 1533 1534 1533 1533 1532 1532 1531 1531 1530 1530 1529 1529 1528 1527 1527 1526 1526 1525 1525 1524 1524 1524 1524 1523 1523 1522 1522 1522 1522 1521 1520 1520 1520 1519 1518 1518 1516 1515
1534 1534 1534 1534 1534 1535 1535 1535 1535 1534 1533 1533 1533 1533 1532 1532 1531 1531 1529 1528 1528 1528 1528 1527 1527 1526 1525 1525 1524 1524 1523 1523 1522 1522 1522 1521 1521 1520 1519 1519 1518 1517 1516
1535 1536 1536 1536 1537 1537 1537 1537 1537 1536 1535 1535 1535 1535 1535 1534 1534 1533 1532 1531 1531 1531 1530 1530 1529 1528 1527 1527 1526 1525 1524 1523 1523 1523 1522 1522 1521 1520 1520 1520 1519 1518 1517